Weather History for KSLB - January, 2012

Change the Weather History Date:

Thursday, January 12, 2012

  Actual Average Record
Temperature  
Mean Temperature 7 °F -  
Max Temperature 12 °F 26 °F 48 °F (2004)
Min Temperature 2 °F 10 °F -7 °F (2015)
Degree Days  
Heating Degree Days 58    
Moisture  
Dew Point 0 °F    
Average Humidity 72    
Maximum Humidity 80    
Minimum Humidity 64    
Precipitation  
Precipitation 0.00 in - - ()
Sea Level Pressure  
Sea Level Pressure 29.87 in    
Wind  
Wind Speed 23 mph (NNW)    
Max Wind Speed 26 mph    
Max Gust Speed 36 mph    
Visibility 10 miles    
Events      
Averages and records for this station are not official NWS values.
T = Trace of Precipitation, MM = Missing Value Source: NWS Daily Summary

Daily Weather History Graph

Daily Weather History Graph

Search for Another Location

Airport or City:

Trip Planner

Search our weather history database for the weather conditions in past years. The results will help you decide how hot, cold, wet, or windy it might be!

Date:

Astronomy

Jan. 12, 2012 Rise Set
Actual Time 7:49 AM CST 5:08 PM CST
Civil Twilight 7:18 AM CST 5:40 PM CST
Nautical Twilight 6:43 AM CST 6:15 PM CST
Astronomical Twilight 6:09 AM CST 6:49 PM CST
Moon 9:21 PM CST (1/12) 9:28 AM CST (1/12)
Length of Visible Light 10h 22m
Length of Day
9h 19m
Waning Gibbous, 87% of the Moon is Illuminated
Jan 12
Waning Gibbous
Jan 16
Last Quarter
Jan 23
New
Jan 30
First Quarter
Feb 7
Full

Hourly Weather History & Observations

Time (CST) Temp. Windchill Dew Point Humidity Pressure Visibility Wind Dir Wind Speed Gust Speed Precip Events Conditions
12:15 AM 12.9 °F -5.7 °F 5.0 °F 71% 29.90 in 10.0 mi NNW 21.9 mph 33.4 mph N/A   Overcast
12:35 AM 12.4 °F -7.3 °F 4.6 °F 71% 29.90 in 10.0 mi NNW 24.2 mph 29.9 mph N/A   Overcast
12:55 AM 12.0 °F -7.7 °F 4.6 °F 72% 29.90 in 7.0 mi North 24.2 mph 34.5 mph N/A   Overcast
1:15 AM 11.3 °F -8.3 °F 3.9 °F 72% 29.90 in 10.0 mi NNW 23.0 mph 34.5 mph N/A   Overcast
1:35 AM 10.9 °F -8.3 °F 1.0 °F 64% 29.89 in 10.0 mi NNW 21.9 mph 34.5 mph N/A   Mostly Cloudy
1:55 AM 10.4 °F -8.2 °F 0.5 °F 64% 29.90 in 10.0 mi NNW 19.6 mph 33.4 mph N/A   Mostly Cloudy
2:15 AM 9.7 °F -10.4 °F 1.8 °F 70% 29.90 in 7.0 mi NNW 23.0 mph 28.8 mph N/A   Overcast
2:35 AM 9.5 °F -8.8 °F 2.7 °F 74% 29.91 in 10.0 mi NNW 18.4 mph 26.5 mph N/A   Overcast
2:55 AM 8.6 °F -13.1 °F 1.4 °F 73% 29.90 in 10.0 mi NNW 26.5 mph 33.4 mph N/A   Overcast
3:15 AM 7.5 °F -14.1 °F 0.3 °F 72% 29.90 in 10.0 mi NNW 25.3 mph 34.5 mph N/A   Mostly Cloudy
3:35 AM 6.6 °F -14.5 °F -0.2 °F 74% 29.90 in 10.0 mi NNW 23.0 mph 29.9 mph N/A   Mostly Cloudy
3:55 AM 5.5 °F -13.5 °F -0.8 °F 75% 29.89 in 10.0 mi NNW 17.3 mph 32.2 mph N/A   Scattered Clouds
4:15 AM 5.0 °F -15.7 °F -1.3 °F 75% 29.89 in 10.0 mi NNW 20.7 mph 27.6 mph N/A   Clear
4:35 AM 4.6 °F -17.1 °F -1.3 °F 76% 29.89 in 10.0 mi NNW 23.0 mph 32.2 mph N/A   Scattered Clouds
4:55 AM 4.1 °F -17.4 °F -0.9 °F 80% 29.88 in 10.0 mi NW 21.9 mph 28.8 mph N/A   Mostly Cloudy
5:15 AM 3.9 °F -16.1 °F -1.3 °F 79% 29.88 in 10.0 mi NW 18.4 mph 27.6 mph N/A   Mostly Cloudy
5:35 AM 3.9 °F -16.1 °F -0.9 °F 80% 29.88 in 10.0 mi NW 18.4 mph 28.8 mph N/A   Scattered Clouds
5:55 AM 4.1 °F -16.9 °F -1.3 °F 78% 29.88 in 10.0 mi NW 20.7 mph 31.1 mph N/A   Mostly Cloudy
6:15 AM 4.8 °F -14.9 °F -0.0 °F 80% 29.87 in 10.0 mi NW 18.4 mph 27.6 mph N/A   Mostly Cloudy
6:35 AM 4.3 °F -16.7 °F -1.5 °F 77% 29.88 in 10.0 mi NNW 20.7 mph 29.9 mph N/A   Overcast
6:55 AM 3.6 °F -18.6 °F -2.4 °F 76% 29.87 in 10.0 mi NNW 23.0 mph 29.9 mph N/A   Mostly Cloudy
7:15 AM 2.8 °F -18.6 °F -2.9 °F 77% 29.88 in 10.0 mi NNW 20.7 mph 26.5 mph N/A   Mostly Cloudy
7:35 AM 2.8 °F -18.6 °F -2.7 °F 78% 29.88 in 10.0 mi NNW 20.7 mph 29.9 mph N/A   Overcast
7:55 AM 3.2 °F -17.6 °F -2.9 °F 76% 29.88 in 10.0 mi NNW 19.6 mph 32.2 mph N/A   Overcast
8:15 AM 3.9 °F -18.1 °F -2.4 °F 75% 29.87 in 10.0 mi NNW 23.0 mph 27.6 mph N/A   Overcast
8:35 AM 4.5 °F -17.8 °F -2.2 °F 74% 29.87 in 10.0 mi NNW 24.2 mph 28.8 mph N/A   Overcast
8:55 AM 4.5 °F -16.9 °F -2.6 °F 73% 29.87 in 10.0 mi NNW 21.9 mph 29.9 mph N/A   Overcast
9:15 AM 5.0 °F -16.7 °F -2.6 °F 71% 29.88 in 10.0 mi NNW 23.0 mph 29.9 mph N/A   Overcast
9:35 AM 5.5 °F -17.2 °F -2.0 °F 71% 29.87 in 10.0 mi NNW 26.5 mph 31.1 mph N/A   Overcast
9:55 AM 5.9 °F -16.3 °F -1.5 °F 72% 29.88 in 7.0 mi NNW 25.3 mph 33.4 mph N/A   Overcast
10:15 AM 6.3 °F -14.1 °F -1.3 °F 71% 29.88 in 10.0 mi NNW 20.7 mph 32.2 mph N/A   Overcast
10:35 AM 6.4 °F -14.3 °F -1.3 °F 71% 29.88 in 7.0 mi NNW 21.9 mph 34.5 mph N/A   Overcast
10:55 AM 6.6 °F -14.1 °F -1.1 °F 71% 29.88 in 7.0 mi NNW 21.9 mph 32.2 mph N/A   Overcast
11:15 AM 7.2 °F -14.6 °F -1.5 °F 68% 29.87 in 10.0 mi NNW 25.3 mph 34.5 mph N/A   Overcast
11:35 AM 7.5 °F -13.7 °F -0.8 °F 69% 29.87 in 10.0 mi NNW 24.2 mph 31.1 mph N/A   Overcast
11:55 AM 7.5 °F -14.1 °F -0.8 °F 69% 29.86 in 10.0 mi NNW 25.3 mph 32.2 mph N/A   Overcast
12:15 PM 8.2 °F -13.2 °F -0.4 °F 68% 29.85 in 10.0 mi NNW 25.3 mph 34.5 mph N/A   Overcast
12:35 PM 8.2 °F -12.8 °F -0.4 °F 68% 29.85 in 10.0 mi NNW 24.2 mph 33.4 mph N/A   Overcast
12:55 PM 8.2 °F -13.2 °F -0.4 °F 68% 29.84 in 7.0 mi NNW 25.3 mph 32.2 mph N/A   Overcast
1:15 PM 8.6 °F -12.7 °F -0.0 °F 68% 29.84 in 10.0 mi NNW 25.3 mph 34.5 mph N/A   Overcast
1:35 PM 8.4 °F -12.9 °F -0.2 °F 68% 29.84 in 10.0 mi NNW 25.3 mph 31.1 mph N/A   Overcast
1:55 PM 8.6 °F -13.1 °F -0.4 °F 67% 29.84 in 10.0 mi NW 26.5 mph 33.4 mph N/A   Overcast
2:15 PM 8.6 °F -12.3 °F -0.4 °F 67% 29.84 in 10.0 mi NW 24.2 mph 32.2 mph N/A   Overcast
2:35 PM 8.6 °F -12.7 °F 0.3 °F 69% 29.84 in 10.0 mi NNW 25.3 mph 34.5 mph N/A   Overcast
2:55 PM 8.8 °F -12.8 °F -0.0 °F 67% 29.84 in 10.0 mi NW 26.5 mph 35.7 mph N/A   Overcast
3:15 PM 9.3 °F -11.3 °F 0.3 °F 67% 29.85 in 10.0 mi NNW 24.2 mph 31.1 mph N/A   Overcast
3:35 PM 9.5 °F -11.1 °F 0.5 °F 67% 29.86 in 10.0 mi NW 24.2 mph 31.1 mph N/A   Overcast
3:55 PM 9.5 °F -11.5 °F 0.5 °F 67% 29.86 in 10.0 mi NNW 25.3 mph 33.4 mph N/A   Overcast
4:15 PM 10.0 °F -10.8 °F 1.0 °F 67% 29.87 in 10.0 mi NNW 25.3 mph 34.5 mph N/A   Overcast
4:35 PM 10.0 °F -10.8 °F 1.9 °F 70% 29.87 in 10.0 mi NW 25.3 mph 33.4 mph N/A   Overcast
4:55 PM 10.0 °F -10.8 °F 2.1 °F 70% 29.87 in 10.0 mi NW 25.3 mph 33.4 mph N/A   Overcast
5:15 PM 10.0 °F -9.5 °F 2.1 °F 70% 29.87 in 10.0 mi NNW 21.9 mph 29.9 mph N/A   Overcast
5:35 PM 10.0 °F -9.1 °F 2.5 °F 72% 29.87 in 10.0 mi NNW 20.7 mph 28.8 mph N/A   Overcast
5:55 PM 10.0 °F -10.4 °F 2.5 °F 72% 29.88 in 10.0 mi NW 24.2 mph 31.1 mph N/A   Overcast
6:15 PM 9.9 °F -10.6 °F 3.0 °F 74% 29.88 in 10.0 mi NNW 24.2 mph 29.9 mph N/A   Overcast
6:35 PM 9.3 °F -9.6 °F 2.7 °F 74% 29.88 in 10.0 mi NNW 19.6 mph 28.8 mph N/A   Overcast
6:55 PM 9.0 °F -11.8 °F 2.3 °F 74% 29.88 in 10.0 mi NNW 24.2 mph 35.7 mph N/A   Overcast
7:15 PM 8.6 °F -13.4 °F 1.9 °F 74% 29.89 in 10.0 mi NNW 27.6 mph 36.8 mph N/A   Overcast
7:35 PM 8.1 °F -12.2 °F 1.4 °F 74% 29.89 in 10.0 mi NNW 21.9 mph 28.8 mph N/A   Overcast
7:55 PM 7.7 °F -13.1 °F 2.3 °F 79% 29.90 in 5.0 mi NNW 23.0 mph 29.9 mph N/A   Overcast
8:15 PM 7.3 °F -13.1 °F 1.6 °F 77% 29.90 in 10.0 mi NNW 21.9 mph 32.2 mph N/A   Overcast
8:35 PM 6.8 °F -12.4 °F 1.4 °F 79% 29.91 in 10.0 mi NNW 18.4 mph 27.6 mph N/A   Overcast
8:55 PM 6.3 °F -13.6 °F 1.0 °F 79% 29.91 in 10.0 mi NNW 19.6 mph 27.6 mph N/A   Overcast
9:15 PM 5.9 °F -13.5 °F 0.5 °F 78% 29.91 in 10.0 mi NNW 18.4 mph 25.3 mph N/A   Overcast
9:35 PM 5.2 °F -15.0 °F 0.3 °F 80% 29.91 in 10.0 mi NNW 19.6 mph 24.2 mph N/A   Overcast
9:55 PM 4.5 °F -14.3 °F -0.2 °F 81% 29.92 in 10.0 mi NNW 16.1 mph 20.7 mph N/A   Scattered Clouds
10:15 PM 4.1 °F -13.4 °F -0.0 °F 83% 29.92 in 10.0 mi NW 13.8 mph 20.7 mph N/A   Clear
10:35 PM 3.9 °F -15.0 °F -0.4 °F 82% 29.92 in 10.0 mi NNW 16.1 mph 20.7 mph N/A   Clear
10:55 PM 3.6 °F -14.8 °F -0.4 °F 84% 29.92 in 10.0 mi NNW 15.0 mph - N/A   Scattered Clouds
11:15 PM 3.2 °F -15.3 °F -1.1 °F 82% 29.92 in 10.0 mi NNW 15.0 mph 23.0 mph N/A   Scattered Clouds
11:35 PM 3.0 °F -14.1 °F -1.5 °F 82% 29.93 in 10.0 mi NW 12.7 mph - N/A   Clear
11:55 PM 2.5 °F -16.2 °F -2.2 °F 81% 29.92 in 10.0 mi NW 15.0 mph - N/A   Clear